Tracking 30166 objects as of 22-Jan-2025
HD Live streaming from Space Station
objects crossing your sky now

DMSP 5D-2 F11 DEB

Track DMSP 5D-2 F11 DEB now!
10-day predictions


NORAD ID: 28333
Int'l Code: 1991-082AW
Perigee: 662.0 km
Apogee: 667.4 km
Inclination: 98.5 °
Period: 97.9 minutes
Semi major axis: 7035 km
RCS: 0.0092 m2 (small)
Launch date: November 28, 1991
Source: United States (US)
Launch site: AIR FORCE WESTERN TEST RANGE (AFWTR)

Note: This is SATELLITE DEBRIS
Your satellite tracking list
Your tracking list is empty




NASA's NSSDC Master Catalog

Two Line Element Set (TLE):
1 28333U 91082AW  25021.21570664  .00050997  00000-0  82417-2 0  9994
2 28333  98.5342 109.8991 0003842  85.1740 302.7924 14.71093541 80999
Source of the keplerian elements: AFSPC